OAL023 SUMU-SAMM

Flight info

Callsign OAL023
Flight time N/A
Altitude 30000
Route DAGUS UL405 UGIMI DCT PTA DCT EZE UW68 GPI UM783 USVER
Aircraft B722/M-SDFGHRWY/C

Departure

Time 2026-05-06 16:02
Airport Carrasco General Cesáreo L. Berisso International Airport (SUMU)

Arrival

Time N/A
Airport Comodoro D.R. Salomón Airport (SAMM)
Time Latitude Longitude Altitude Speed Heading
2026-05-06 15:48 -34.83885 -56.02590 80 ft 0 kts 88°
2026-05-06 15:50 -34.83886 -56.02606 80 ft 3 kts 74°
2026-05-06 15:50 -34.83893 -56.02616 80 ft 3 kts
2026-05-06 15:51 -34.83912 -56.02616 79 ft 3 kts
2026-05-06 15:51 -34.83920 -56.02618 79 ft 3 kts 48°
2026-05-06 15:51 -34.83923 -56.02624 79 ft 3 kts 39°
2026-05-06 15:51 -34.83940 -56.02631 78 ft 4 kts 357°
2026-05-06 15:52 -34.83947 -56.02626 78 ft 4 kts 285°
2026-05-06 15:52 -34.83948 -56.02598 78 ft 4 kts 268°
2026-05-06 15:52 -34.83947 -56.02570 79 ft 3 kts 268°
2026-05-06 15:52 -34.83947 -56.02563 79 ft 0 kts 269°
2026-05-06 15:58 -34.83947 -56.02565 79 ft 1 kts 269°
2026-05-06 15:59 -34.83947 -56.02587 78 ft 5 kts 269°
2026-05-06 15:59 -34.83954 -56.02657 77 ft 11 kts 255°
2026-05-06 15:59 -34.83988 -56.02744 75 ft 12 kts 234°
2026-05-06 15:59 -34.84014 -56.02818 73 ft 11 kts 258°
2026-05-06 16:00 -34.84013 -56.02926 72 ft 14 kts 274°
2026-05-06 16:00 -34.84016 -56.03038 69 ft 14 kts 248°
2026-05-06 16:00 -34.84096 -56.03065 65 ft 12 kts 157°
2026-05-06 16:00 -34.84169 -56.03034 62 ft 9 kts 209°
2026-05-06 16:01 -34.84169 -56.03070 62 ft 3 kts 328°
2026-05-06 16:01 -34.84148 -56.03076 63 ft 3 kts 354°
2026-05-06 16:01 -34.83994 -56.03079 70 ft 50 kts 360°
2026-05-06 16:01 -34.83437 -56.03087 85 ft 108 kts 359°
2026-05-06 16:02 -34.82522 -56.03099 109 ft 153 kts 358°
2026-05-06 16:02 -34.81431 -56.03101 477 ft 163 kts 360°
2026-05-06 16:02 -34.80223 -56.03062 746 ft 186 kts
2026-05-06 16:02 -34.78856 -56.03136 1133 ft 203 kts 356°
2026-05-06 16:03 -34.77446 -56.03230 1915 ft 205 kts 356°
2026-05-06 16:03 -34.76020 -56.03325 2843 ft 205 kts 356°
2026-05-06 16:03 -34.74575 -56.03424 3654 ft 212 kts 356°
2026-05-06 16:03 -34.73023 -56.03528 4227 ft 236 kts 356°
2026-05-06 16:04 -34.71302 -56.03645 4804 ft 259 kts 355°
2026-05-06 16:04 -34.69558 -56.04327 5581 ft 265 kts 328°
2026-05-06 16:04 -34.68113 -56.05720 6626 ft 269 kts 309°
2026-05-06 16:04 -34.67171 -56.07703 7501 ft 275 kts 288°
2026-05-06 16:05 -34.66881 -56.09993 8430 ft 278 kts 266°
2026-05-06 16:05 -34.67290 -56.12297 9302 ft 282 kts 249°
2026-05-06 16:05 -34.68110 -56.14477 10149 ft 286 kts 241°
2026-05-06 16:05 -34.69096 -56.16604 10974 ft 291 kts 241°
2026-05-06 16:06 -34.70036 -56.18801 11773 ft 295 kts 244°
2026-05-06 16:06 -34.70929 -56.21064 12570 ft 299 kts 244°
2026-05-06 16:06 -34.71848 -56.23345 13291 ft 303 kts 243°
2026-05-06 16:06 -34.72804 -56.25648 13934 ft 307 kts 243°
2026-05-06 16:07 -34.73767 -56.27981 14595 ft 310 kts 243°
2026-05-06 16:07 -34.74730 -56.30344 15224 ft 314 kts 243°
2026-05-06 16:07 -34.75704 -56.32730 15831 ft 318 kts 243°
2026-05-06 16:07 -34.76699 -56.35160 16428 ft 321 kts 243°
2026-05-06 16:08 -34.77697 -56.37603 17000 ft 325 kts 243°
2026-05-06 16:08 -34.78707 -56.40077 17556 ft 328 kts 243°
2026-05-06 16:08 -34.79724 -56.42570 18093 ft 332 kts 243°
2026-05-06 16:08 -34.80758 -56.45106 18618 ft 335 kts 243°
2026-05-06 16:09 -34.81796 -56.47655 19124 ft 338 kts 243°
2026-05-06 16:09 -34.82844 -56.50232 19617 ft 341 kts 243°
2026-05-06 16:09 -34.83902 -56.52833 20095 ft 344 kts 243°
2026-05-06 16:09 -34.84969 -56.55459 20560 ft 347 kts 243°
2026-05-06 16:10 -34.86043 -56.58104 21011 ft 350 kts 243°
2026-05-06 16:10 -34.87127 -56.60774 21450 ft 353 kts 243°
2026-05-06 16:10 -34.88220 -56.63473 21877 ft 356 kts 243°
2026-05-06 16:10 -34.89321 -56.66189 22291 ft 359 kts 243°
2026-05-06 16:11 -34.90427 -56.68923 22692 ft 362 kts 244°
2026-05-06 16:11 -34.91545 -56.71687 23084 ft 365 kts 244°
2026-05-06 16:11 -34.92670 -56.74470 23465 ft 367 kts 244°
2026-05-06 16:11 -34.93800 -56.77271 23834 ft 370 kts 244°
2026-05-06 16:12 -34.94941 -56.80099 24194 ft 373 kts 244°
2026-05-06 16:12 -34.96088 -56.82945 24545 ft 375 kts 244°
2026-05-06 16:12 -34.97235 -56.85810 24884 ft 377 kts 245°
2026-05-06 16:12 -34.98067 -56.88843 25175 ft 380 kts 259°
2026-05-06 16:13 -34.98350 -56.92059 25504 ft 382 kts 267°
2026-05-06 16:13 -34.98350 -56.95308 25813 ft 385 kts 272°
2026-05-06 16:13 -34.98219 -56.98585 26111 ft 387 kts 272°
2026-05-06 16:13 -34.98181 -57.01872 26402 ft 390 kts 269°
2026-05-06 16:14 -34.98229 -57.05187 26694 ft 392 kts 269°
2026-05-06 16:14 -34.98238 -57.08468 26968 ft 394 kts 270°
2026-05-06 16:14 -34.98193 -57.11818 27242 ft 396 kts 270°
2026-05-06 16:14 -34.98161 -57.15184 27506 ft 398 kts 270°
2026-05-06 16:15 -34.98158 -57.18567 27766 ft 400 kts 270°
2026-05-06 16:15 -34.98150 -57.21970 28016 ft 402 kts 270°
2026-05-06 16:15 -34.98124 -57.25384 28261 ft 404 kts 270°
2026-05-06 16:15 -34.98098 -57.28823 28498 ft 406 kts 270°
2026-05-06 16:16 -34.98081 -57.32266 28731 ft 408 kts 270°
2026-05-06 16:16 -34.98062 -57.35729 28954 ft 410 kts 270°
2026-05-06 16:16 -34.98036 -57.39212 29176 ft 411 kts 270°
2026-05-06 16:16 -34.98010 -57.42705 29386 ft 413 kts 270°
2026-05-06 16:17 -34.97986 -57.46213 29595 ft 415 kts 270°
2026-05-06 16:17 -34.97960 -57.49739 29796 ft 416 kts 270°
2026-05-06 16:17 -34.97931 -57.53277 29990 ft 418 kts 270°
2026-05-06 16:17 -34.97902 -57.56851 30005 ft 425 kts 270°
2026-05-06 16:18 -34.97839 -57.64157 30007 ft 437 kts 270°
2026-05-06 16:18 -34.97771 -57.71678 30012 ft 449 kts 270°
2026-05-06 16:19 -34.97694 -57.79385 30012 ft 460 kts 270°
2026-05-06 16:19 -34.97608 -57.87273 30007 ft 470 kts 271°
2026-05-06 16:20 -34.96463 -57.95159 30014 ft 478 kts 285°
2026-05-06 16:20 -34.94418 -58.02927 30007 ft 485 kts 287°
2026-05-06 16:21 -34.92649 -58.10915 30009 ft 492 kts 285°
2026-05-06 16:21 -34.90670 -58.18946 30011 ft 497 kts 287°
2026-05-06 16:22 -34.88766 -58.27093 30011 ft 502 kts 285°
2026-05-06 16:22 -34.86789 -58.35282 30010 ft 505 kts 286°
2026-05-06 16:23 -34.84826 -58.43491 30009 ft 505 kts 285°
2026-05-06 16:23 -34.83167 -58.51792 29996 ft 505 kts 275°
2026-05-06 16:24 -34.83606 -58.60270 30008 ft 504 kts 259°
2026-05-06 16:24 -34.85270 -58.68561 30010 ft 504 kts 255°
2026-05-06 16:25 -34.86822 -58.76883 30010 ft 504 kts 258°
2026-05-06 16:25 -34.88366 -58.85207 30010 ft 504 kts 256°
2026-05-06 16:26 -34.89949 -58.93532 30008 ft 504 kts 258°
2026-05-06 16:26 -34.91468 -59.01867 30008 ft 504 kts 256°
2026-05-06 16:27 -34.93039 -59.10198 30009 ft 504 kts 257°
2026-05-06 16:27 -34.94554 -59.18537 30009 ft 504 kts 257°
2026-05-06 16:28 -34.96104 -59.26880 30009 ft 504 kts 257°
2026-05-06 16:28 -34.97609 -59.35172 30009 ft 504 kts 257°
2026-05-06 16:29 -34.99137 -59.43515 30009 ft 504 kts 257°
2026-05-06 16:29 -35.00648 -59.51871 30010 ft 504 kts 257°
2026-05-06 16:30 -35.01917 -59.58868 30010 ft 504 kts 257°
2026-05-06 16:30 -35.03661 -59.68577 30010 ft 504 kts 257°
2026-05-06 16:31 -35.05161 -59.76944 30010 ft 504 kts 257°
2026-05-06 16:31 -35.06651 -59.85304 30010 ft 504 kts 257°
2026-05-06 16:32 -35.08139 -59.93673 30008 ft 504 kts 257°
2026-05-06 16:32 -35.09616 -60.02036 30008 ft 504 kts 258°
2026-05-06 16:33 -35.11094 -60.10414 30008 ft 504 kts 258°
2026-05-06 16:34 -35.13295 -60.22980 30009 ft 504 kts 258°
2026-05-06 16:34 -35.14753 -60.31353 30009 ft 504 kts 258°
2026-05-06 16:35 -35.16209 -60.39741 30009 ft 504 kts 258°
2026-05-06 16:35 -35.17659 -60.48127 30009 ft 504 kts 258°
2026-05-06 16:36 -35.19103 -60.56517 30009 ft 504 kts 258°
2026-05-06 16:36 -35.20540 -60.64904 30009 ft 504 kts 258°
2026-05-06 16:37 -35.21974 -60.73307 30010 ft 504 kts 258°
2026-05-06 16:37 -35.23400 -60.81698 30010 ft 504 kts 258°
2026-05-06 16:38 -35.24821 -60.90103 30010 ft 504 kts 258°
2026-05-06 16:38 -35.26227 -60.98450 30010 ft 504 kts 258°
2026-05-06 16:39 -35.27636 -61.06859 30011 ft 504 kts 258°
2026-05-06 16:39 -35.29040 -61.15272 30008 ft 504 kts 258°
2026-05-06 16:40 -35.30437 -61.23677 30008 ft 504 kts 258°
2026-05-06 16:40 -35.31828 -61.32092 30008 ft 504 kts 258°
2026-05-06 16:41 -35.33213 -61.40507 30008 ft 504 kts 258°
2026-05-06 16:41 -35.34595 -61.48936 30009 ft 504 kts 258°
2026-05-06 16:42 -35.35970 -61.57362 30009 ft 504 kts 258°
2026-05-06 16:42 -35.37337 -61.65784 30009 ft 504 kts 258°
2026-05-06 16:43 -35.38701 -61.74218 30009 ft 504 kts 258°
2026-05-06 16:43 -35.40057 -61.82654 30009 ft 504 kts 258°
2026-05-06 16:44 -35.41406 -61.91084 30010 ft 504 kts 259°
2026-05-06 16:44 -35.42524 -61.98101 30010 ft 504 kts 259°
2026-05-06 16:45 -35.44089 -62.07968 30010 ft 504 kts 259°
2026-05-06 16:45 -35.45195 -62.14977 30010 ft 504 kts 259°
2026-05-06 16:46 -35.46525 -62.23435 30010 ft 504 kts 259°
2026-05-06 16:46 -35.47846 -62.31884 30008 ft 504 kts 259°
2026-05-06 16:47 -35.49162 -62.40338 30008 ft 504 kts 259°
2026-05-06 16:47 -35.50471 -62.48787 30008 ft 504 kts 259°
2026-05-06 16:48 -35.51774 -62.57243 30009 ft 504 kts 259°
2026-05-06 16:48 -35.53074 -62.65710 30009 ft 504 kts 259°
2026-05-06 16:49 -35.54365 -62.74168 30009 ft 504 kts 259°
2026-05-06 16:49 -35.55652 -62.82639 30009 ft 504 kts 259°
2026-05-06 16:50 -35.56932 -62.91105 30009 ft 504 kts 259°
2026-05-06 16:50 -35.58207 -62.99584 30010 ft 504 kts 259°
2026-05-06 16:51 -35.59476 -63.08053 30010 ft 504 kts 259°
2026-05-06 16:51 -35.60739 -63.16539 30010 ft 504 kts 259°
2026-05-06 16:52 -35.61996 -63.25017 30010 ft 504 kts 259°
2026-05-06 16:52 -35.63246 -63.33500 30010 ft 504 kts 259°
2026-05-06 16:53 -35.64443 -63.41992 30011 ft 504 kts 260°
2026-05-06 16:53 -35.65641 -63.50489 30008 ft 504 kts 260°
2026-05-06 16:54 -35.66823 -63.58936 30008 ft 504 kts 260°
2026-05-06 16:54 -35.68006 -63.67435 30008 ft 504 kts 260°
2026-05-06 16:55 -35.69134 -63.75950 30003 ft 504 kts 264°
2026-05-06 16:55 -35.69253 -63.84571 30007 ft 505 kts 272°
2026-05-06 16:56 -35.68930 -63.93191 30010 ft 505 kts 270°
2026-05-06 16:56 -35.68981 -64.01816 30009 ft 505 kts 271°
2026-05-06 16:57 -35.68751 -64.10449 30010 ft 505 kts 271°
2026-05-06 16:57 -35.68705 -64.19080 30008 ft 505 kts 270°
2026-05-06 16:58 -35.68526 -64.27719 30009 ft 505 kts 271°
2026-05-06 16:58 -35.68423 -64.36351 30009 ft 505 kts 270°
2026-05-06 16:59 -35.68262 -64.44978 30009 ft 505 kts 271°
2026-05-06 16:59 -35.68127 -64.53618 30010 ft 505 kts 271°
2026-05-06 17:00 -35.67965 -64.62247 30010 ft 505 kts 271°
2026-05-06 17:00 -35.67811 -64.70883 30010 ft 505 kts 271°
2026-05-06 17:01 -35.67641 -64.79520 30010 ft 505 kts 271°
2026-05-06 17:01 -35.67470 -64.88152 30010 ft 505 kts 271°
2026-05-06 17:02 -35.67286 -64.96780 30010 ft 505 kts 271°
2026-05-06 17:02 -35.67102 -65.05412 30008 ft 505 kts 271°
2026-05-06 17:03 -35.66908 -65.14041 30008 ft 505 kts 271°
2026-05-06 17:03 -35.66709 -65.22679 30008 ft 505 kts 271°
2026-05-06 17:04 -35.66505 -65.31305 30009 ft 505 kts 271°
2026-05-06 17:04 -35.66293 -65.39935 30009 ft 503 kts 271°
2026-05-06 17:04 -35.66189 -65.44061 29996 ft 476 kts 271°
2026-05-06 17:05 -35.66087 -65.48080 29987 ft 469 kts 271°
2026-05-06 17:05 -35.65879 -65.56176 29994 ft 475 kts 271°
2026-05-06 17:06 -35.65662 -65.64293 29997 ft 475 kts 271°
2026-05-06 17:06 -35.65441 -65.72413 29998 ft 475 kts 271°
2026-05-06 17:07 -35.65215 -65.80525 29999 ft 475 kts 271°
2026-05-06 17:07 -35.64983 -65.88636 29999 ft 475 kts 272°
2026-05-06 17:08 -35.64746 -65.96763 29999 ft 475 kts 272°
2026-05-06 17:08 -35.64504 -66.04872 29999 ft 475 kts 272°
2026-05-06 17:09 -35.64254 -66.12994 29999 ft 475 kts 272°
2026-05-06 17:09 -35.64002 -66.21109 30000 ft 475 kts 272°
2026-05-06 17:10 -35.63742 -66.29226 30000 ft 475 kts 272°
2026-05-06 17:10 -35.63478 -66.37334 30000 ft 475 kts 272°
2026-05-06 17:11 -35.63210 -66.45374 29436 ft 465 kts 272°
2026-05-06 17:11 -35.63076 -66.49347 28377 ft 464 kts 272°
2026-05-06 17:11 -35.62942 -66.53276 27672 ft 455 kts 272°
2026-05-06 17:11 -35.62809 -66.57131 26875 ft 448 kts 272°
2026-05-06 17:12 -35.62677 -66.60935 26081 ft 442 kts 272°
2026-05-06 17:12 -35.62545 -66.64680 25322 ft 436 kts 272°
2026-05-06 17:12 -35.62415 -66.68373 24567 ft 429 kts 272°
2026-05-06 17:12 -35.62286 -66.72008 23821 ft 423 kts 272°
2026-05-06 17:13 -35.62156 -66.75600 23077 ft 418 kts 272°
2026-05-06 17:13 -35.62028 -66.79145 22344 ft 412 kts 272°
2026-05-06 17:13 -35.61900 -66.82642 21645 ft 406 kts 272°
2026-05-06 17:13 -35.61773 -66.86086 20938 ft 401 kts 272°
2026-05-06 17:14 -35.61646 -66.89495 20241 ft 396 kts 272°
2026-05-06 17:14 -35.61521 -66.92855 19558 ft 391 kts 272°
2026-05-06 17:14 -35.61395 -66.96177 18886 ft 387 kts 272°
2026-05-06 17:14 -35.61272 -66.99453 18229 ft 382 kts 272°
2026-05-06 17:15 -35.61147 -67.02696 17578 ft 377 kts 272°
2026-05-06 17:15 -35.61024 -67.05900 16937 ft 373 kts 272°
2026-05-06 17:15 -35.60901 -67.09065 16308 ft 369 kts 272°
2026-05-06 17:15 -35.60779 -67.12196 15693 ft 365 kts 272°
2026-05-06 17:16 -35.60657 -67.15291 15084 ft 361 kts 272°
2026-05-06 17:16 -35.60537 -67.18348 14486 ft 357 kts 272°
2026-05-06 17:16 -35.60416 -67.21388 13901 ft 353 kts 272°
2026-05-06 17:16 -35.60297 -67.24352 13345 ft 349 kts 272°
2026-05-06 17:17 -35.60176 -67.27349 12680 ft 346 kts 272°
2026-05-06 17:17 -35.60059 -67.30245 12056 ft 342 kts 272°
2026-05-06 17:17 -35.59941 -67.33144 11445 ft 338 kts 272°
2026-05-06 17:17 -35.59823 -67.36014 10836 ft 335 kts 272°
2026-05-06 17:18 -35.59705 -67.38859 10233 ft 331 kts 272°
2026-05-06 17:18 -35.59590 -67.41639 10001 ft 316 kts 272°
2026-05-06 17:18 -35.59480 -67.44256 9985 ft 297 kts 272°
2026-05-06 17:18 -35.59376 -67.46744 9985 ft 289 kts 272°
2026-05-06 17:19 -35.59272 -67.49218 9987 ft 291 kts 272°
2026-05-06 17:19 -35.59168 -67.51698 9991 ft 291 kts 272°
2026-05-06 17:19 -35.59062 -67.54180 9990 ft 291 kts 272°
2026-05-06 17:19 -35.58955 -67.56667 9991 ft 291 kts 272°
2026-05-06 17:20 -35.58849 -67.59150 9992 ft 291 kts 272°
2026-05-06 17:20 -35.58742 -67.61632 9993 ft 291 kts 272°
2026-05-06 17:20 -35.58634 -67.64117 9993 ft 291 kts 272°
2026-05-06 17:20 -35.58526 -67.66597 9993 ft 291 kts 272°
2026-05-06 17:21 -35.58417 -67.69082 9993 ft 291 kts 272°
2026-05-06 17:21 -35.58308 -67.71564 9994 ft 291 kts 272°
2026-05-06 17:21 -35.58198 -67.74048 9994 ft 291 kts 272°
2026-05-06 17:21 -35.58089 -67.76529 9993 ft 291 kts 272°
2026-05-06 17:22 -35.57978 -67.79015 9994 ft 291 kts 272°
2026-05-06 17:22 -35.57866 -67.81493 9994 ft 291 kts 272°
2026-05-06 17:22 -35.57755 -67.83978 9994 ft 291 kts 272°
2026-05-06 17:22 -35.57642 -67.86465 9994 ft 291 kts 272°
2026-05-06 17:23 -35.57529 -67.88945 9994 ft 291 kts 272°
2026-05-06 17:23 -35.57418 -67.91393 9994 ft 291 kts 273°
2026-05-06 17:23 -35.57304 -67.93879 9994 ft 291 kts 273°
2026-05-06 17:23 -35.57190 -67.96357 9994 ft 291 kts 273°
2026-05-06 17:24 -35.57075 -67.98846 9994 ft 291 kts 273°
2026-05-06 17:24 -35.56960 -68.01326 9995 ft 291 kts 273°
2026-05-06 17:24 -35.56844 -68.03806 9995 ft 291 kts 273°
2026-05-06 17:24 -35.56727 -68.06289 9995 ft 291 kts 273°
2026-05-06 17:25 -35.56611 -68.08772 9995 ft 291 kts 273°
2026-05-06 17:25 -35.56494 -68.11250 9995 ft 291 kts 273°
2026-05-06 17:25 -35.56375 -68.13732 9995 ft 291 kts 273°
2026-05-06 17:25 -35.56257 -68.16213 9995 ft 291 kts 273°
2026-05-06 17:26 -35.56138 -68.18699 9995 ft 291 kts 273°
2026-05-06 17:26 -35.56021 -68.21181 9995 ft 291 kts 272°
2026-05-06 17:26 -35.55916 -68.23665 9996 ft 291 kts 272°
2026-05-06 17:26 -35.55795 -68.26144 9993 ft 291 kts 276°
2026-05-06 17:27 -35.55146 -68.28476 9998 ft 292 kts 303°
2026-05-06 17:27 -35.54044 -68.30575 10006 ft 293 kts 296°
2026-05-06 17:27 -35.53258 -68.32871 10012 ft 292 kts 289°
2026-05-06 17:27 -35.52599 -68.35229 10011 ft 292 kts 288°
2026-05-06 17:28 -35.51942 -68.37582 10010 ft 292 kts 288°
2026-05-06 17:28 -35.51283 -68.39943 10008 ft 292 kts 288°
2026-05-06 17:28 -35.50636 -68.42270 10007 ft 292 kts 288°
2026-05-06 17:28 -35.50079 -68.44660 10007 ft 292 kts 284°
2026-05-06 17:29 -35.49567 -68.47100 10005 ft 291 kts 281°
2026-05-06 17:29 -35.49444 -68.49538 10000 ft 291 kts 266°
2026-05-06 17:29 -35.49652 -68.52008 10006 ft 291 kts 262°
2026-05-06 17:29 -35.49829 -68.54480 10009 ft 291 kts 268°
2026-05-06 17:30 -35.49790 -68.56965 10007 ft 291 kts 272°
2026-05-06 17:30 -35.49722 -68.59449 10010 ft 291 kts 270°
2026-05-06 17:30 -35.49729 -68.61931 10008 ft 291 kts 269°
2026-05-06 17:30 -35.49754 -68.64416 10007 ft 291 kts 269°
2026-05-06 17:31 -35.49753 -68.66895 10008 ft 291 kts 270°
2026-05-06 17:31 -35.49742 -68.69382 10007 ft 291 kts 270°
2026-05-06 17:31 -35.49739 -68.71866 10008 ft 291 kts 269°
2026-05-06 17:31 -35.49740 -68.74350 10008 ft 291 kts 269°
2026-05-06 17:32 -35.49737 -68.76834 10008 ft 291 kts 270°
2026-05-06 17:32 -35.49733 -68.79321 10008 ft 291 kts 270°
2026-05-06 17:32 -35.49728 -68.81803 10008 ft 291 kts 270°
2026-05-06 17:32 -35.49724 -68.84287 10008 ft 291 kts 270°
2026-05-06 17:33 -35.49721 -68.85931 10009 ft 291 kts 270°
2026-05-06 17:33 -35.49716 -68.88412 10008 ft 291 kts 270°
2026-05-06 17:33 -35.49710 -68.90899 10009 ft 291 kts 270°
2026-05-06 17:33 -35.49703 -68.93383 10009 ft 291 kts 270°
2026-05-06 17:34 -35.49696 -68.95864 10009 ft 291 kts 270°
2026-05-06 17:34 -35.49689 -68.98352 10009 ft 291 kts 270°
2026-05-06 17:34 -35.49681 -69.00835 10009 ft 291 kts 270°
2026-05-06 17:34 -35.49673 -69.03258 9973 ft 277 kts 270°
2026-05-06 17:35 -35.49664 -69.05574 9824 ft 267 kts 270°
2026-05-06 17:35 -35.49656 -69.07819 9665 ft 260 kts 270°
2026-05-06 17:35 -35.49647 -69.10021 9514 ft 257 kts 270°
2026-05-06 17:36 -35.49628 -69.14377 9242 ft 254 kts 270°
2026-05-06 17:36 -35.49619 -69.16546 9113 ft 253 kts 270°
2026-05-06 17:36 -35.49609 -69.18704 8987 ft 253 kts 270°
2026-05-06 17:36 -35.49598 -69.20856 8862 ft 252 kts 270°
2026-05-06 17:37 -35.49588 -69.22981 8737 ft 252 kts 270°
2026-05-06 17:37 -35.49576 -69.25126 8612 ft 251 kts 270°
2026-05-06 17:37 -35.49565 -69.27265 8487 ft 251 kts 270°
2026-05-06 17:37 -35.49552 -69.29402 8362 ft 250 kts 270°
2026-05-06 17:38 -35.49541 -69.31536 8236 ft 250 kts 270°
2026-05-06 17:38 -35.49529 -69.33664 8120 ft 249 kts 270°
2026-05-06 17:38 -35.49515 -69.35777 8069 ft 247 kts 270°
2026-05-06 17:38 -35.49502 -69.37874 8016 ft 247 kts 270°
2026-05-06 17:39 -35.49488 -69.39989 7965 ft 247 kts 270°
2026-05-06 17:39 -35.49474 -69.42094 7916 ft 247 kts 270°
2026-05-06 17:39 -35.49459 -69.44194 7868 ft 247 kts 270°
2026-05-06 17:39 -35.49446 -69.46298 7817 ft 246 kts 270°
2026-05-06 17:40 -35.49429 -69.48399 7766 ft 246 kts 270°
2026-05-06 17:40 -35.49415 -69.50499 7717 ft 246 kts 270°
2026-05-06 17:40 -35.49400 -69.52594 7667 ft 246 kts 270°
2026-05-06 17:40 -35.49383 -69.54692 7617 ft 245 kts 270°
2026-05-06 17:41 -35.49367 -69.56787 7566 ft 245 kts 270°
2026-05-06 17:41 -35.49738 -69.58790 7480 ft 244 kts 237°
2026-05-06 17:41 -35.51018 -69.60105 7432 ft 244 kts 199°
2026-05-06 17:41 -35.52686 -69.60165 7412 ft 245 kts 161°
2026-05-06 17:42 -35.54044 -69.58945 7400 ft 247 kts 123°
2026-05-06 17:42 -35.54547 -69.56949 7414 ft 248 kts 94°
2026-05-06 17:42 -35.54567 -69.54837 7423 ft 244 kts 91°
2026-05-06 17:42 -35.54666 -69.52806 7372 ft 233 kts 98°
2026-05-06 17:43 -35.54970 -69.50890 7281 ft 225 kts 107°
2026-05-06 17:43 -35.55504 -69.49118 7285 ft 219 kts 116°
2026-05-06 17:43 -35.56327 -69.47561 7292 ft 218 kts 132°